CZ-6A DEB, 54449

Orbit data source: Space-Track

CZ-6A DEB, 54449 is space debris in SSO originally from a launch on Fri, 11 Nov 2022 UTC launched from the Taiyaun Space Center, China (TSC). Debris objects in space refer to the collection of defunct objects orbiting the Earth. Examples of debris include non-operational satellites, rocket bodies, and fragments generated from explosions, collisions, or faulty payload assembly.

Loading next visibility...
Identifier
54449, 2022-151FZ
Orbit
SSO
Country
Flag of CNCN / PRC
Related business
Manufacturer
SAST
Mission
Spacecraft
Bus & Motor
Unknown
Mass
Unknown
Launch date (UTC)
2022-11-11 (4 years ago)
Launch vehicle
Unknown
Launch site
Taiyaun Space Center, China (TSC)
Object type
Payload
Rocket body
Debris
Shape & HBR
Unknown shape, 0.1 m
Radar Cross Section
Medium (>0.1 m² and <1 m²)

Expand to show TLE details & history
Last TLE update: 12 hours ago

TLE from 12 hours ago
0 CZ-6A DEB
1 54449U 22151FZ  26193.91196225  .00000416  00000-0  32738-3 0  9990
2 54449  98.9808 168.6775 0132948   5.2663 354.9861 13.93201683186017
Epoch: 2026-07-12T21:53Z
TLE epoch observation values (Epoch: 2026-07-12T21:53:13.538Z)
Latitude
-0.00001°
Longitude
-90.43293°
Altitude
823.671 km
Speed
7.49 km/s
True Right ascension
11h 14m 42s
True Declination
0° 00' 00"
Sunlit
Object was in daylight at epoch
Visualization orbit readout
Latitude
Unknown
Longitude
Unknown
Altitude
Unknown
Speed
Unknown
Apparent Right ascension
Unknown
Apparent Declination
Unknown
Sunlit
N/A
Visualization observer readout
Local Sidereal Time
22:39:29
Azimuth
Unknown
Elevation
Unknown
Doppler factor
Unknown
Orbital elements
Apogee altitude
1,011.595 km
Perigee altitude
817.683 km
Semi-major axis
7,292.776 km
Eccentricity
0.01329
Inclination
98.9808°
RAAN
168.6775°
Arg. of periapsis
5.2663°
True anomaly
354.85071°
Mean anomaly
354.9861°
Eccentric anomaly
354.91863°
Mean motion
3.48501 °/min
Orbital period
103.3 mins
BSTAR
0.00032738
Loading maneuver chart data...
Computing Atmospheric mass density...
Loading historical data...
Loading historical data...
Loading historical data...
Loading historical data...
Loading historical data...
Loading historical data...
Loading historical data...

Documentation

Showing up to 5 results
|